Regional Weather Roundup
Issued by NWS

Home | Current Version | Previous Version | Graphics & Text | Print | Product List | Glossary On
Versions: 1 2 3 4 5 6 7 8 9 10 11 12 13 14 15 16 17 18 19 20 21 22 23 24 25 26 27 28 29 30 31 32 33 34 35 36 37 38 39 40 41 42 43 44 45 46 47 48 49 50
000
ASUS43 KLOT 191606
RWRIL

ILLINOIS REGIONAL WEATHER ROUNDUP
NATIONAL WEATHER SERVICE CHICAGO/ROMEOVILLE IL
1100 AM CDT SAT APR 19 2014

NOTE: "FAIR" INDICATES FEW OR NO CLOUDS BELOW 12,000 FEET WITH NO
SIGNIFICANT WEATHER AND/OR OBSTRUCTIONS TO VISIBILITY.

* THESE STATIONS ARE NOT UNDER NWS QUALITY CONTROL. THEY ALSO MAY NOT
  REPORT WEATHER SUCH AS PRECIPITATION OR FOG.

ILZ001-002-007-009-015-016-024-191700-
NORTHWEST ILLINOIS

CITY           SKY/WX    TMP DP  RH WIND       PRES   REMARKS
MOLINE         SUNNY     60  26  27 SE13G21   30.29F
STERLING*      MOSUNNY   57  36  44 SE13      30.32F
SAVANNA*       MOSUNNY   58  29  33 SE9G16    30.32F
$$

ILZ003-004-008-010-011-017-018-191700-
NORTH CENTRAL ILLINOIS

CITY           SKY/WX    TMP DP  RH WIND       PRES   REMARKS
ROCKFORD       PTSUNNY   56  31  38 SE14      30.35F
FREEPORT*      MOSUNNY   54  32  42 SE15      30.35R
ROCHELLE*      MOSUNNY   56  33  41 SE14      30.33F
DE KALB*       MOSUNNY   53  32  43 SE12G18   30.35F
$$

ILZ005-006-012>014-019>023-191700-
NORTHEAST ILLINOIS

CITY           SKY/WX    TMP DP  RH WIND       PRES   REMARKS
CHICAGO-OHARE  MOSUNNY   51  35  54 E8        30.36F
CHICAGO-MIDWAY PTSUNNY   50  37  61 E5        30.36F
AURORA         SUNNY     57  35  43 E12       30.34F
LANSING*       SUNNY     56  38  52 SE10      30.36F
WAUKEGAN       SUNNY     41  33  73 E12       30.38F
DUPAGE AIRPORT SUNNY     55  35  47 E9        30.34F
KANKAKEE*      SUNNY     57  39  50 SE9       30.35F
WHEELING       SUNNY     48  36  63 VRB6      30.38F
MORRIS*        SUNNY     57  31  37 SE10      30.33F
NORTHERLY ISL    N/A     44  36  73 NE7         N/A
$$

LMZ740>746-191700-
SOUTHERN LAKE MICHIGAN

STATION/POSITION SKY/WX   TEMP    WIND        PRES    VSBY  WAVE
                          AIR SEA DIR/SP/G                  HT/PER
                          (F)     (DEG/KT/KT) (MB)    (MI)  (FT/S)
WAUKEGAN HARBOR            36      90/  8/  9 1030.5S
HARRISON CRIB              39      70/  8/ 10   N/A
BURNHAM HARBOR             43      50/  6/  8   N/A
CALUMET HARBOR             41      60/  6/  8 1028.9F
MICHIGAN CITY              52      80/  9/ 13   N/A
$$

ILZ025>027-034>036-040-047-049-050-058-095>099-191700-
WEST-CENTRAL ILLINOIS

CITY           SKY/WX    TMP DP  RH WIND       PRES   REMARKS
QUINCY         SUNNY     64  38  38 S14       30.26F
GALESBURG*     SUNNY     61  31  32 SE8G16    30.28F
MACOMB*        SUNNY     61  29  30 SE13      30.30F
JACKSONVILLE*  SUNNY     64  39  39 S8        30.30F
PITTSFIELD*    SUNNY     64  39  39 SE9       30.29F
$$

ILZ028>032-037-038-041>044-048-051>054-059>061-191700-
CENTRAL ILLINOIS

CITY           SKY/WX    TMP DP  RH WIND       PRES   REMARKS
PONTIAC        SUNNY     61  37  41 SE13G20   30.33F
BLOOMINGTON    SUNNY     61  31  32 SE14      30.33S
DECATUR        SUNNY     64  34  32 SE12      30.31F
PEORIA         SUNNY     62  28  27 SE8       30.31F
LACON*         SUNNY     58  32  37 SE8       30.32F
LINCOLN*       SUNNY     65  32  29 SE8       30.31S
SPRINGFIELD    SUNNY     63  36  36 SE8       30.31S
TAYLORVILLE    SUNNY     63  39  42 SE7       30.30S
$$

ILZ033-039-045-046-055>057-062-063-191700-
EAST-CENTRAL ILLINOIS

CITY           SKY/WX    TMP DP  RH WIND       PRES   REMARKS
CHAMPAIGN      SUNNY     65  34  31 E13       30.31F
RANTOUL*       SUNNY     63  33  32 SE9       30.33F
MATTOON        SUNNY     63  33  32 SE9       30.30F
PARIS*         SUNNY     63  37  38 E8        30.32F
$$

ILZ079-100>102-191700-
SOUTHWEST ILLINOIS

CITY           SKY/WX    TMP DP  RH WIND       PRES   REMARKS
ALTON          SUNNY     63  41  45 E7        30.30S
BELLEVILLE     SUNNY     64  47  53 SE7       30.29S
CAHOKIA*       SUNNY     66  45  46 E6        30.29S
SPARTA*        SUNNY     64  43  45 E7        30.29S
$$

ILZ064>066-069>071-074>076-080>082-084>086-088>090-092>094-191700-
SOUTH-CENTRAL ILLINOIS

CITY           SKY/WX    TMP DP  RH WIND       PRES   REMARKS
CARBONDALE     SUNNY     67  45  45 SE6       30.27F
CAIRO*         SUNNY     71  46  41 NE6       30.26S
MARION         SUNNY     68  45  42 E8        30.28F
MT. VERNON     SUNNY     66  43  42 E7        30.30S
CENTRALIA*       N/A     68  41  37 CALM      30.28F
SALEM*         SUNNY     66  46  49 E7        30.29F
METROPOLIS*    SUNNY     70  40  33 SE7       30.25F
$$

ILZ067-068-072-073-078-083-087-091-191700-
SOUTHEAST ILLINOIS

CITY           SKY/WX    TMP DP  RH WIND       PRES   REMARKS
FAIRFIELD*     SUNNY     66  46  48 E3        30.29S
HARRISBURG*    SUNNY     66  45  46 E8        30.29S
ROBINSON*      SUNNY     67  46  47 E8        30.31F
CARMI*         SUNNY     68  48  49 E7        30.29S
$$

ABBREVIATIONS USED IN REMARKS
   TC - TEMPERATURE IN CELSIUS
  WCI - WIND CHILL INDEX
   HX - HEAT INDEX
  VSB - VISIBILITY
$$




USA.gov is the U.S. government's official web portal to all federal, state and local government web resources and services.